This demonstration page uses our WeatherBlox Daily Observations layout. Learn more.

40.92945, -100.16068

Hourly Observations for May 26, 2018

Temp ( °F °C ) Dew Point ( °F °C ) Humidity (%) Winds ( mph kmh ) Pressure ( in mb ) Visibility ( mi km ) Precip ( " mm )
12:15 am 00:15 Clear 65 18.2 60 15.4 84 84 Calm 29.74 1007 10 16.0934 0 0
12:35 am 00:35 Clear 66 19 60 15.4 80 80 Calm 29.74 1007 10 16.0934 0 0
12:55 am 00:55 Clear 64 18 59 14.9 82 82 WNW 3 6 29.77 1008 10 16.0934 0 0
1:15 am 01:15 Clear 65 18.1 60 15.4 84 84 Calm 29.8 1009 10 16.0934 0 0
1:35 am 01:35 Clear 64 18 59 15.2 84 84 Calm 29.8 1009 10 16.0934 0 0
1:55 am 01:55 Clear 64 17.6 59 15 85 85 Calm 29.8 1009 10 16.0934 0 0
2:15 am 02:15 Clear 64 17.9 59 15.1 84 84 Calm 29.8 1009 10 16.0934 0 0
2:35 am 02:35 Clear 62 16.9 58 14.5 86 86 Calm 29.8 1009 10 16.0934 0 0
2:55 am 02:55 Clear 62 16.9 57 14 83 83 Calm 29.8 1009 10 16.0934 0 0
3:15 am 03:15 Clear 63 17.1 58 14.7 86 86 Calm 29.8 1009 10 16.0934 0 0
3:35 am 03:35 Clear 61 16.2 57 13.8 86 86 WNW 3 6 29.8 1009 10 16.0934 0 0
3:55 am 03:55 Clear 61 16.3 57 14 86 86 NNW 5 7 29.8 1009 10 16.0934 0 0
4:15 am 04:15 Clear 60 15.6 57 14 90 90 NNW 5 7 29.8 1009 10 16.0934 0 0
4:35 am 04:35 Clear 60 15.7 57 13.9 89 89 NNW 3 6 29.8 1009 10 16.0934 0 0
4:55 am 04:55 Clear 60 15.7 57 13.7 88 88 WNW 3 6 29.77 1008 10 16.0934 0 0
5:15 am 05:15 Clear 61 16 57 14 88 88 NW 3 6 29.77 1008 10 16.0934 0 0
5:35 am 05:35 Clear 61 16 57 13.7 86 86 NW 3 6 29.77 1008 10 16.0934 0 0
5:55 am 05:55 Clear 60 15.3 56 13.5 89 89 NNW 3 6 29.8 1009 10 16.0934 0 0
6:15 am 06:15 Sunny 59 15.2 56 13.6 90 90 NNW 3 6 29.8 1009 10 16.0934 0 0
6:35 am 06:35 Sunny 59 15 56 13.2 89 89 NW 3 6 29.8 1009 10 16.0934 0 0
6:55 am 06:55 Sunny 60 15.4 57 13.7 90 90 Calm 29.8 1009 10 16.0934 0 0
7:15 am 07:15 Sunny 62 16.5 58 14.7 89 89 Calm 29.8 1009 10 16.0934 0 0
7:35 am 07:35 Sunny 64 17.8 60 15.7 88 88 Calm 29.8 1009 10 16.0934 0 0
7:55 am 07:55 Sunny 67 19.2 62 16.7 86 86 Calm 29.8 1009 10 16.0934 0 0
8:15 am 08:15 Sunny 69 20.7 62 16.8 78 78 Calm 29.8 1009 10 16.0934 0 0
8:35 am 08:35 Sunny 72 22.4 64 17.5 74 74 Calm 29.77 1008 10 16.0934 0 0
8:55 am 08:55 Sunny 74 23.4 64 17.9 71 71 W 5 7 29.77 1008 10 16.0934 0 0
9:15 am 09:15 Sunny 77 24.8 66 19 70 70 WNW 7 11 29.77 1008 10 16.0934 0 0
9:35 am 09:35 Sunny 79 26 67 19.5 67 67 WNW 6 9 29.74 1007 10 16.0934 0 0
9:55 am 09:55 Sunny 80 26.7 67 19.7 66 66 W 7 11 29.74 1007 10 16.0934 0 0
10:15 am 10:15 Sunny 81 27.4 68 20 64 64 WNW 7 11 29.74 1007 10 16.0934 0 0
10:35 am 10:35 Sunny 83 28.1 68 20.2 62 62 W 5 7 29.74 1007 10 16.0934 0 0
10:55 am 10:55 Sunny 84 28.8 68 20 59 59 W 6 9 29.71 1006 10 16.0934 0 0
11:15 am 11:15 Sunny 85 29.5 68 19.8 56 56 WSW 3 6 29.68 1005 10 16.0934 0 0
11:35 am 11:35 Sunny 87 30.3 66 18.9 50 50 SW 5 7 29.68 1005 10 16.0934 0 0
11:55 am 11:55 Sunny 87 30.8 64 18 46 46 W 5 7 29.68 1005 10 16.0934 0 0
12:15 pm 12:15 Sunny 88 31.2 63 17 43 43 SW 3 6 29.68 1005 10 16.0934 0 0
12:35 pm 12:35 Sunny 89 31.4 64 17.9 45 45 W 9 15 29.68 1005 10 16.0934 0 0
12:55 pm 12:55 Sunny 89 31.8 63 17.1 41 41 SSW 8 13 29.68 1005 10 16.0934 0 0
1:15 pm 13:15 Sunny 89 31.9 62 16.5 40 40 SSW 7 11 29.68 1005 10 16.0934 0 0
1:35 pm 13:35 Sunny 90 32 64 18 43 43 SW 8 13 29.65 1004 10 16.0934 0 0
1:55 pm 13:55 Sunny 90 32.1 64 18 43 43 SW 9 15 29.65 1004 10 16.0934 0 0
2:15 pm 14:15 Sunny 91 32.5 63 17.1 40 40 SSW 12 19 29.62 1003 10 16.0934 0 0
2:35 pm 14:35 Sunny 91 32.8 60 15.4 35 35 SSW 12 19 29.62 1003 10 16.0934 0 0
2:55 pm 14:55 Sunny 91 33 63 17.3 39 39 S 9 15 29.62 1003 10 16.0934 0 0
3:15 pm 15:15 Sunny 91 32.9 61 16.2 37 37 SSE 12 19 29.62 1003 10 16.0934 0 0
3:35 pm 15:35 Sunny 91 33 62 16.7 38 38 S 7 11 29.59 1002 10 16.0934 0 0
3:55 pm 15:55 Sunny 92 33.1 61 16.3 36 36 S 10 17 29.59 1002 10 16.0934 0 0
4:15 pm 16:15 Sunny 92 33.2 63 17.1 38 38 S 7 11 29.59 1002 10 16.0934 0 0
4:35 pm 16:35 Sunny 92 33.1 62 16.6 37 37 S 13 20 29.59 1002 10 16.0934 0 0
4:55 pm 16:55 Sunny 92 33.1 60 15.3 34 34 S 10 17 29.59 1002 10 16.0934 0 0
5:35 pm 17:35 Sunny 91 33 60 15.3 34 34 S 14 22 29.59 1002 10 16.0934 0 0
5:55 pm 17:55 Sunny 91 32.5 57 14 33 33 SSE 10 17 29.59 1002 10 16.0934 0 0
6:15 pm 18:15 Sunny 91 32.5 58 14.3 33 33 SSE 15 24 29.56 1001 10 16.0934 0 0
6:35 pm 18:35 Sunny 89 31.9 57 13.8 33 33 S 13 20 29.56 1001 10 16.0934 0 0
6:55 pm 18:55 Sunny 90 32 55 12.9 31 31 SSE 14 22 29.56 1001 10 16.0934 0 0
7:15 pm 19:15 Sunny 88 31.3 57 13.8 34 34 SSE 15 24 29.59 1002 10 16.0934 0 0
7:35 pm 19:35 Sunny 87 30.3 56 13.6 36 36 SSE 10 17 29.59 1002 10 16.0934 0 0
7:55 pm 19:55 Sunny 84 28.9 57 14 40 40 SSE 8 13 29.62 1003 10 16.0934 0 0
8:15 pm 20:15 Sunny 83 28.2 59 14.9 44 44 SSE 8 13 29.65 1004 10 16.0934 0 0
8:35 pm 20:35 Sunny 82 27.6 58 14.7 45 45 SSE 8 13 29.65 1004 10 16.0934 0 0
8:55 pm 20:55 Sunny 81 27.4 57 14.1 44 44 SSE 8 13 29.65 1004 10 16.0934 0 0
9:15 pm 21:15 Clear 81 27.1 57 13.8 44 44 SSE 9 15 29.65 1004 10 16.0934 0 0
9:35 pm 21:35 Clear 78 25.8 57 13.9 48 48 SSE 9 15 29.65 1004 10 16.0934 0 0
9:55 pm 21:55 Clear 77 25 57 13.9 50 50 SSE 9 15 29.65 1004 10 16.0934 0 0
10:15 pm 22:15 Clear 76 24.3 58 14.2 53 53 SSE 8 13 29.68 1005 10 16.0934 0 0
10:35 pm 22:35 Clear 76 24.5 58 14.5 54 54 SSE 9 15 29.71 1006 10 16.0934 0 0
10:55 pm 22:55 Clear 76 24.3 58 14.6 55 55 SSE 9 15 29.71 1006 10 16.0934 0 0
11:15 pm 23:15 Clear 76 24.4 58 14.7 55 55 SSE 9 15 29.71 1006 10 16.0934 0 0
11:35 pm 23:35 Clear 76 24.7 58 14.4 53 53 S 10 17 29.71 1006 10 16.0934 0 0
11:55 pm 23:55 Clear 75 23.9 58 14.5 56 56 S 9 15 29.71 1006 10 16.0934 0 0

Powered by AerisWeather